Location: Schommer Observatory
(40.5200°N, 74.4500°W)
Time: 21:43:23
(UTC-05:00)

DOVE 4 - Visible Passes

Search period start: 23 February 2019 00:00
Search period end: 05 March 2019 00:00
Orbit: 590 x 802 km, 97.7° (Epoch: 23 February)

Date Brightness Start Highest point End Pass type
(mag) Time Alt. Az. Time Alt. Az. Time Alt. Az.
23 Feb ? 04:05:01 10° N 04:05:26 12° N 04:05:26 12° N visible
24 Feb ? 03:07:49 10° NNE 03:07:58 11° NNE 03:07:58 11° NNE visible
25 Feb ? 03:48:38 10° N 03:49:14 13° N 03:49:14 13° N visible
26 Feb ? 04:30:11 10° NNW 04:30:30 11° NNW 04:30:30 11° NNW visible
27 Feb ? 03:32:20 10° N 03:33:01 14° N 03:33:01 14° N visible
28 Feb ? 04:13:34 10° N 04:14:18 13° NNW 04:14:18 13° NNW visible
01 Mar ? 03:16:08 10° NNE 03:16:48 14° NNE 03:16:48 14° NNE visible
02 Mar ? 03:57:05 10° N 03:58:04 15° N 03:58:04 15° N visible
03 Mar ? 03:00:01 10° NNE 03:00:34 13° NNE 03:00:34 13° NNE visible
03 Mar ? 04:38:56 10° NNW 04:39:19 11° NNW 04:39:19 11° NNW visible
04 Mar ? 03:40:43 10° N 03:41:50 17° N 03:41:50 17° N visible
